When you browse on this site, cookies collect data to enhance your experience and personalize the content and advertising you see.
Visit our Privacy Policy to learn more. By continuing to use the site, you agree to this use of cookies and data.
  • In Hungary
  • List of Countries
  • For 7 days
  • Water Temperature
  • Satellite Maps
  • Weather Map
  • News
  • Weather Widgets
  • user-avatar
    Login

    Hourly Weather Langar

    Today, 12 December, Wednesday

    Time Temperature Precipitation Wind Pressure Humidity
    00:00 -5°C° 0 mm 2 mps 609 mmHg 80%
    01:00 -6°C° 0 mm 2 mps 609 mmHg 81%
    02:00 -6°C° 0 mm 2 mps 609 mmHg 81%
    03:00 -6°C° 0 mm 2 mps 609 mmHg 82%
    04:00 -6°C° 0 mm 2 mps 609 mmHg 81%
    05:00 -6°C° 0 mm 2 mps 609 mmHg 80%
    06:00 -6°C° 0 mm 2 mps 609 mmHg 80%
    07:00 -6°C° 0 mm 2 mps 609 mmHg 80%
    08:00 -5°C° 0 mm 2 mps 609 mmHg 71%
    09:00 -3°C° 0 mm 2 mps 610 mmHg 63%
    10:00 -1°C° 0 mm 2 mps 611 mmHg 55%
    11:00 +1°C° 0 mm 1 mps 611 mmHg 52%
    12:00 +2°C° 0 mm 1 mps 611 mmHg 48%
    13:00 +3°C° 0 mm 1 mps 611 mmHg 44%
    14:00 +2°C° 0 mm 1 mps 611 mmHg 48%
    15:00 +1°C° 0 mm 1 mps 610 mmHg 52%
    16:00 +1°C° 0 mm 1 mps 610 mmHg 55%
    17:00 0°C° 0 mm 1 mps 610 mmHg 56%
    18:00 -2°C° 0 mm 2 mps 610 mmHg 56%
    19:00 -2°C° 0 mm 2 mps 610 mmHg 57%
    20:00 -3°C° 0 mm 2 mps 610 mmHg 56%
    21:00 -3°C° 0 mm 2 mps 610 mmHg 55%
    22:00 -3°C° 0 mm 2 mps 610 mmHg 54%
    23:00 -3°C° 0 mm 2 mps 609 mmHg 53%

    Tomorrow, 13 December, Thursday

    Time Temperature Precipitation Wind Pressure Humidity
    00:00 -4°C° 0 mm 3 mps 609 mmHg 53%
    01:00 -4°C° 0 mm 3 mps 609 mmHg 52%
    02:00 -5°C° 0 mm 3 mps 609 mmHg 52%
    03:00 -5°C° 0 mm 3 mps 609 mmHg 52%
    04:00 -5°C° 0 mm 3 mps 609 mmHg 52%
    05:00 -5°C° 0 mm 3 mps 609 mmHg 51%
    06:00 -5°C° 0 mm 3 mps 609 mmHg 50%
    07:00 -5°C° 0 mm 3 mps 609 mmHg 49%
    08:00 -2°C° 0 mm 3 mps 610 mmHg 44%
    09:00 0°C° 0 mm 3 mps 611 mmHg 39%
    10:00 +2°C° 0 mm 3 mps 611 mmHg 35%
    11:00 +3°C° 0 mm 3 mps 611 mmHg 31%
    12:00 +4°C° 0 mm 3 mps 611 mmHg 28%
    13:00 +5°C° 0 mm 3 mps 612 mmHg 25%
    14:00 +4°C° 0 mm 3 mps 611 mmHg 27%
    15:00 +3°C° 0 mm 3 mps 611 mmHg 29%
    16:00 +2°C° 0 mm 3 mps 610 mmHg 31%
    17:00 +1°C° 0 mm 3 mps 610 mmHg 33%
    18:00 +1°C° 0 mm 3 mps 610 mmHg 34%
    19:00 -1°C° 0 mm 4 mps 610 mmHg 35%
    20:00 -1°C° 0 mm 4 mps 610 mmHg 35%
    21:00 -1°C° 0 mm 4 mps 610 mmHg 35%
    22:00 -2°C° 0 mm 4 mps 610 mmHg 36%
    23:00 -2°C° 0 mm 4 mps 610 mmHg 34%

    Day after tomorrow, 14 December, Friday

    Time Temperature Precipitation Wind Pressure Humidity
    00:00 -2°C° 0 mm 4 mps 610 mmHg 33%
    01:00 -2°C° 0 mm 4 mps 609 mmHg 32%
    02:00 -2°C° 0 mm 4 mps 609 mmHg 32%
    03:00 -2°C° 0 mm 4 mps 609 mmHg 31%
    04:00 -2°C° 0 mm 4 mps 609 mmHg 30%
    05:00 -2°C° 0 mm 4 mps 609 mmHg 29%
    06:00 -1°C° 0 mm 3 mps 610 mmHg 29%
    07:00 -1°C° 0 mm 3 mps 610 mmHg 28%
    08:00 +1°C° 0 mm 3 mps 611 mmHg 26%
    09:00 +2°C° 0 mm 3 mps 611 mmHg 24%
    10:00 +4°C° 0 mm 3 mps 612 mmHg 22%
    11:00 +5°C° 0 mm 3 mps 612 mmHg 20%
    12:00 +7°C° 0 mm 3 mps 613 mmHg 19%
    13:00 +8°C° 0 mm 2 mps 613 mmHg 17%
    14:00 +6°C° 0 mm 2 mps 612 mmHg 20%
    15:00 +5°C° 0 mm 2 mps 612 mmHg 23%
    16:00 +4°C° 0 mm 1 mps 611 mmHg 26%
    17:00 +3°C° 0 mm 2 mps 611 mmHg 26%
    18:00 +2°C° 0 mm 2 mps 612 mmHg 26%
    19:00 +2°C° 0 mm 2 mps 612 mmHg 25%
    20:00 +1°C° 0 mm 2 mps 612 mmHg 26%
    21:00 +1°C° 0 mm 2 mps 612 mmHg 26%
    22:00 0°C° 0 mm 3 mps 612 mmHg 26%
    23:00 -1°C° 0 mm 3 mps 612 mmHg 28%

    15 December, Saturday

    Time Temperature Precipitation Wind Pressure Humidity
    00:00 -1°C° 0 mm 3 mps 611 mmHg 31%
    01:00 -2°C° 0 mm 3 mps 611 mmHg 33%
    02:00 -2°C° 0 mm 2 mps 611 mmHg 35%
    03:00 -3°C° 0 mm 2 mps 611 mmHg 37%
    04:00 -3°C° 0 mm 2 mps 611 mmHg 39%
    05:00 -3°C° 0 mm 2 mps 611 mmHg 40%
    06:00 -4°C° 0 mm 2 mps 611 mmHg 40%
    07:00 -4°C° 0 mm 2 mps 611 mmHg 41%
    08:00 -2°C° 0 mm 3 mps 612 mmHg 38%
    09:00 -1°C° 0 mm 3 mps 612 mmHg 34%
    10:00 0°C° 0 mm 3 mps 613 mmHg 30%
    11:00 +1°C° 0 mm 3 mps 613 mmHg 28%
    12:00 +2°C° 0 mm 3 mps 613 mmHg 26%
    13:00 +3°C° 0 mm 3 mps 613 mmHg 24%
    14:00 +3°C° 0 mm 2 mps 612 mmHg 28%
    15:00 +2°C° 0 mm 2 mps 612 mmHg 32%
    16:00 +2°C° 0 mm 1 mps 612 mmHg 36%
    17:00 +1°C° 0 mm 1 mps 612 mmHg 38%
    18:00 +1°C° 0 mm 1 mps 612 mmHg 40%
    19:00 0°C° 0 mm 1 mps 612 mmHg 42%
    20:00 0°C° 0 mm 1 mps 612 mmHg 44%
    21:00 -1°C° 0 mm 1 mps 611 mmHg 46%
    22:00 -3°C° 0 mm 2 mps 611 mmHg 48%
    23:00 -2°C° 0 mm 1 mps 611 mmHg 50%

    16 December, Sunday

    Time Temperature Precipitation Wind Pressure Humidity
    00:00 -2°C° 0 mm 1 mps 612 mmHg 52%
    01:00 -2°C° 0 mm 1 mps 612 mmHg 54%
    02:00 -2°C° 0 mm 1 mps 612 mmHg 56%
    03:00 -3°C° 0 mm 1 mps 612 mmHg 58%
    04:00 -3°C° 0 mm 1 mps 612 mmHg 60%
    05:00 -3°C° 0 mm 1 mps 612 mmHg 62%
    06:00 -3°C° 0 mm 1 mps 612 mmHg 64%
    07:00 -6°C° 0 mm 2 mps 612 mmHg 66%
    08:00 -5°C° 0 mm 2 mps 613 mmHg 62%
    09:00 -4°C° 0 mm 2 mps 614 mmHg 58%
    10:00 -3°C° 0 mm 2 mps 614 mmHg 54%
    11:00 -2°C° 0 mm 2 mps 614 mmHg 53%
    12:00 -1°C° 0 mm 2 mps 614 mmHg 52%
    13:00 -1°C° 0 mm 2 mps 614 mmHg 50%
    14:00 -1°C° 0 mm 2 mps 614 mmHg 54%
    15:00 -2°C° 0 mm 2 mps 614 mmHg 57%
    16:00 -2°C° 0 mm 3 mps 614 mmHg 60%
    17:00 -3°C° 0 mm 2 mps 614 mmHg 63%
    18:00 -4°C° 0 mm 2 mps 614 mmHg 66%
    19:00 -5°C° 0 mm 2 mps 614 mmHg 70%
    20:00 -5°C° 0 mm 2 mps 614 mmHg 69%
    21:00 -5°C° 0 mm 2 mps 613 mmHg 69%
    22:00 -5°C° 0 mm 2 mps 613 mmHg 69%
    23:00 -5°C° 0 mm 2 mps 613 mmHg 69%

    17 December, Monday

    Time Temperature Precipitation Wind Pressure Humidity
    00:00 -5°C° 0 mm 2 mps 613 mmHg 69%
    01:00 -5°C° 0 mm 2 mps 612 mmHg 69%
    02:00 -5°C° 0 mm 2 mps 612 mmHg 69%
    03:00 -6°C° 0 mm 2 mps 612 mmHg 69%
    04:00 -6°C° 0 mm 2 mps 611 mmHg 70%
    05:00 -6°C° 0 mm 2 mps 611 mmHg 69%
    06:00 -6°C° 0 mm 2 mps 611 mmHg 68%
    07:00 -6°C° 0 mm 2 mps 611 mmHg 67%
    08:00 -4°C° 0 mm 2 mps 612 mmHg 61%
    09:00 -3°C° 0 mm 2 mps 612 mmHg 54%
    10:00 -1°C° 0 mm 2 mps 613 mmHg 48%
    11:00 +1°C° 0 mm 1 mps 612 mmHg 46%
    12:00 +2°C° 0 mm 1 mps 612 mmHg 43%
    13:00 +3°C° 0 mm 1 mps 612 mmHg 40%
    14:00 +2°C° 0 mm 1 mps 612 mmHg 44%
    15:00 +2°C° 0 mm 1 mps 612 mmHg 47%
    16:00 +1°C° 0 mm 1 mps 611 mmHg 51%
    17:00 0°C° 0 mm 1 mps 611 mmHg 54%
    18:00 0°C° 0 mm 1 mps 611 mmHg 56%
    19:00 -1°C° 0 mm 1 mps 611 mmHg 59%
    20:00 -1°C° 0 mm 1 mps 611 mmHg 60%
    21:00 -1°C° 0 mm 1 mps 611 mmHg 61%
    22:00 -2°C° 0 mm 1 mps 611 mmHg 61%
    23:00 -2°C° 0 mm 1 mps 611 mmHg 62%
    Show more